Flag for Germany Weather past 2 weeks in Bernburg (Saale), Saxony-Anhalt, Germany

Now
34 °F

Passing clouds.


Feels Like: 30 °F
Forecast: 38 / 45 °F
Wind: 5 mph from South

Location: Magdeburg

Current Time: Mar 1, 2015 at 2:29:18 AM

Latest Report: Mar 1, 2015 at 2:00 AM


Visibility: 10 mi

Pressure: 29.86 "Hg

Humidity: 78%

Dew point: 28 °F

Location of Bernburg (Saale)Location

Historic Weather in Bernburg (Saale) — Graph

°F

Bernburg (Saale) temperature yesterday

Maximum temperature yesterday: 46 °F (at 3:00 PM)
Minimum temperature yesterday: 33 °F (at 7:00 AM)
Average temperature yesterday: 38 °F

Past Weeks' High & Low Weather Summary

 TemperatureHumidityPressure
High49 °F (Feb 20, 4:00 PM)98% (Feb 18, 6:00 AM)30.76 "Hg (Feb 18, 6:00 AM)
Low25 °F (Feb 17, 8:00 AM)49% (Feb 26, 5:00 PM)29.38 "Hg (Feb 21, 11:00 AM)
Average37 °F80%30.01 "Hg
* Reported Feb 14 1:00 AM — Mar 1 1:00 AM, Bernburg (Saale), Weather by CustomWeather, © 2015

Note: Actual official high and low records may vary slightly from our data, if they occured in-between our weather recording intervals... More about our weather records

Advertising

Bernburg (Saale) weather history for previous 24 hours

 ConditionsComfort  
Time TempWeatherWind HumidityBarometerVisibility
1:00 AM
Sun, Mar 1
35 °FOvercast.3 mph77%29.90 "Hg11 mi
12:00 AM35 °FPassing clouds.3 mph78%29.92 "Hg11 mi
11:00 PM
Sat, Feb 28
35 °FPassing clouds.3 mph77%29.96 "Hg11 mi
9:00 PM36 °FClear.3 mph73%30.00 "Hg25 mi
8:00 PM36 °FPassing clouds.2 mph73%30.01 "Hg25 mi
7:00 PM39 °FPassing clouds.5 mph69%30.03 "Hg25 mi
6:00 PM42 °FPassing clouds.3 mph61%30.03 "Hg28 mi
5:00 PM45 °FScattered clouds.3 mph54%30.05 "Hg28 mi
4:00 PM46 °FScattered clouds.2 mph52%30.07 "Hg28 mi
3:00 PM46 °FScattered clouds.2 mph56%30.09 "Hg28 mi
2:00 PM43 °FPartly sunny.3 mph57%30.11 "Hg28 mi
1:00 PM42 °FScattered clouds.2 mph64%30.12 "Hg28 mi
12:00 PM41 °FScattered clouds.3 mph62%30.14 "Hg25 mi
11:00 AM40 °FPartly sunny.3 mph69%30.15 "Hg25 mi
10:00 AM38 °FScattered clouds.3 mph80%30.16 "Hg19 mi
9:00 AM35 °FPassing clouds.2 mph84%30.15 "Hg19 mi
8:00 AM34 °FPartly sunny.2 mph85%30.15 "Hg19 mi
7:00 AM33 °FPassing clouds.1 mph89%30.13 "Hg19 mi
6:00 AM33 °FPassing clouds.2 mph88%30.12 "Hg19 mi
5:00 AM33 °FPassing clouds.2 mph90%30.11 "Hg16 mi
3:00 AM35 °FOvercast.2 mph91%30.09 "Hg14 mi
2:00 AM36 °FOvercast.3 mph89%30.09 "Hg17 mi
Weather by CustomWeather, © 2015

See weather overviewHow to use our weather pages